[[{"header":{"parameterUnit":"m.s-1","parameterCategory":1,"la1":30.2991,"la2":30.254,"lo1":-89.0895,"lo2":-89.0444,"dy":0.0017,"dx":0.0017,"nx":28,"ny":28,"refTime":"2024-06-06T03:00:00:Z","depth":0,"parameterNumber":2,"parameterNumberName":"U-component_of_WINDS"},"data":[0,0,0,0,0,0,0,0,0,0,0,0,0,0,0,0,0,0,0,0,0,0,0,0,0,0,0,0,0,0,0,0,0,0,0,0,0,0,0,0,0,0,0,0,0,0,0,0,0,0,0,0,0,0,0,0,0,0,0.5462,0.5461,0,0.5326,0.5325,0.5323,0.5194,0.5192,0.519,0.5189,0.5044,0.5042,0.504,0,0,0,0,0,0,0,0,0,0,0,0,0,0.5602,0.56,0.5462,0.546,0.5459,0.5327,0.5325,0.5323,0.5194,0.5192,0.519,0.5188,0.5045,0.5042,0.504,0,0,0,0,0,0,0,0,0,0,0,0,0,0.5511,0.56,0.5462,0.5379,0.537,0.5327,0.5325,0.5322,0.5194,0.5192,0.5189,0.5187,0.5046,0.5043,0.5039,0.5067,0,0,0.5029,0.5027,0,0,0,0,0,0,0,0,0.5517,0.5506,0.5393,0.5384,0.5374,0.5275,0.5321,0.5237,0.5195,0.5261,0.5189,0.5186,0.5123,0.5113,0.5092,0.506,0.5054,0.5028,0.5026,0.5025,0.5024,0,0,0,0,0,0,0,0.5523,0.5511,0.5408,0.5391,0.538,0.5345,0.533,0.5304,0.5207,0.5255,0.5245,0.5231,0.5117,0.5096,0.5088,0.5052,0.5028,0.5025,0.5023,0.5022,0.5033,0.5035,0,0,0,0,0,0,0.5543,0.5518,0.5412,0.5404,0.5441,0.5345,0.5327,0.5309,0.5207,0.5189,0.5233,0.5226,0.5103,0.5092,0.5083,0.5108,0.5025,0.5022,0.502,0.503,0.5033,0.5036,0,0,0,0,0,0,0.5547,0.5535,0.5418,0.5458,0.5441,0.5345,0.5325,0.5308,0.5287,0.5191,0.5172,0.5231,0.5101,0.5087,0.5072,0.5101,0.502,0.5017,0.5028,0.5031,0.5035,0.516,0,0,0,0,0,0,0.5551,0.5537,0.5549,0.5459,0.5439,0.5413,0.5327,0.5307,0.5282,0.527,0.5183,0.5166,0.5098,0.5078,0.5068,0.5095,0.5014,0.5025,0.5029,0.5033,0.5153,0.5168,0.518,0,0,0,0,0,0.5557,0.5589,0.555,0.5538,0.5452,0.5415,0.5402,0.5325,0.5285,0.5294,0.5232,0.5169,0.5099,0.5077,0.5065,0.5092,0.5022,0.5028,0.5033,0.5147,0.5165,0.518,0,0,0,0,0,0,0.5683,0.5576,0.5532,0.5536,0.5486,0.5393,0.5403,0.5346,0.5305,0.5296,0.5199,0.518,0.5176,0.5131,0.5109,0.5112,0.5052,0.5055,0.5142,0.5158,0.5171,0.5184,0.5011,0,0,0,0,0,0.5711,0.5692,0.5598,0.5611,0.5588,0.55,0.5481,0.5425,0.5368,0.5346,0.5282,0.5228,0.5193,0.5172,0.5135,0.5144,0.5123,0.5156,0.5169,0.5181,0.5186,0.5186,0.52,0.5053,0.5053,0.5053,0,0,0.577,0.5709,0.5702,0.5635,0.5589,0.5569,0.5483,0.5466,0.545,0.5342,0.5325,0.5276,0.5208,0.5205,0.52,0.5168,0.5221,0.5188,0.5198,0.5196,0.5193,0.5207,0.522,0.5057,0.5056,0.5056,0,0,0.5867,0.5819,0.5825,0.578,0.5713,0.5653,0.5655,0.5569,0.5534,0.5514,0.5433,0.541,0.5353,0.5308,0.5277,0.5353,0.5294,0.5343,0.5415,0.5417,0.5428,0.5438,0.5466,0.5477,0.5348,0.5348,0.5348,0,0.5949,0.5918,0.5834,0.5822,0.5794,0.5696,0.57,0.566,0.5583,0.5565,0.5529,0.5454,0.5401,0.5386,0.5404,0.5382,0.538,0.5355,0.5434,0.5443,0.5451,0.5476,0.5487,0.5355,0.5354,0.5353,0.5353,0,0.6022,0.6001,0.6013,0.5943,0.5915,0.5911,0.5824,0.5806,0.5751,0.5695,0.5675,0.5607,0.5555,0.5546,0.5492,0.5522,0.5504,0.5452,0.5391,0.5473,0.5495,0.5504,0.5364,0.5362,0.536,0.5358,0,0,0.6199,0.6081,0.6087,0.6053,0.5969,0.5951,0.594,0.5889,0.5876,0.5824,0.5812,0.5764,0.5715,0.5681,0.562,0.5621,0.5686,0.5568,0.5565,0.5594,0.5714,0.5756,0.5769,0.5644,0.5645,0.5646,0.5721,0,0.6284,0.6263,0.6186,0.6187,0.6166,0.607,0.606,0.6007,0.5953,0.5925,0.5863,0.5832,0.5769,0.5747,0.5744,0.5679,0.5709,0.5672,0.5631,0.5631,0.5655,0.578,0.5825,0.5899,0.5729,0.573,0.5731,0,0.6382,0.6338,0.6339,0.6254,0.6242,0.6236,0.6182,0.6157,0.6092,0.6052,0.6013,0.5944,0.5925,0.5865,0.5836,0.5813,0.579,0.5755,0.5756,0.5752,0.5689,0.5782,0.592,0.5932,0.5744,0.5743,0.5742,0,0.6513,0.6454,0.6446,0.642,0.6321,0.6318,0.6276,0.6209,0.6183,0.6134,0.6116,0.6065,0.6038,0.5999,0.5918,0.5882,0.5898,0.5832,0.5864,0.5866,0.5875,0.5876,0.6014,0.5856,0.5856,0.5856,0.5855,0,0.6618,0.6622,0.6504,0.65,0.65,0.6409,0.6411,0.6359,0.6299,0.6281,0.6193,0.6177,0.607,0.604,0.5976,0.5962,0.5949,0.5915,0.5899,0.5925,0.593,0.5912,0.5905,0.5858,0.5858,0.5857,0.5857,0,0.6767,0.6688,0.6674,0.658,0.6556,0.6561,0.648,0.647,0.6409,0.6387,0.6376,0.628,0.6241,0.6155,0.6092,0.6048,0.605,0.6019,0.6074,0.6064,0.6102,0.61,0.6235,0.6248,0.6081,0.6082,0.6084,0,0.6841,0.6842,0.6749,0.6731,0.6694,0.6666,0.6639,0.6547,0.6522,0.6447,0.6446,0.64,0.6359,0.63,0.6223,0.6173,0.6141,0.6191,0.6133,0.6159,0.6144,0.6146,0.6146,0.6206,0.6208,0.621,0.6212,0,0.6981,0.6941,0.6907,0.6859,0.683,0.6787,0.6739,0.6728,0.6624,0.6599,0.656,0.6528,0.6463,0.6418,0.6357,0.631,0.6244,0.623,0.6235,0.6264,0.6297,0.6281,0.6112,0.6228,0.6227,0.6225,0.6225,0.6224,0.7096,0.7092,0.7026,0.699,0.6944,0.6901,0.6887,0.6824,0.679,0.6733,0.6678,0.6643,0.6574,0.6485,0.6442,0.6411,0.6378,0.6385,0.6387,0.6391,0.6403,0.6299,0.6399,0.6398,0.6398,0.6397,0.6397,0,0.7233,0.7185,0.7153,0.7089,0.706,0.7,0.6942,0.6922,0.6893,0.6835,0.6797,0.6749,0.6704,0.6623,0.657,0.6561,0.6529,0.655,0.6551,0.6542,0.6435,0.6437,0.6577,0.6577,0.6577,0.6577,0.6577,0.6577,0.7301,0.7292,0.7244,0.7209,0.7159,0.7127,0.7099,0.7057,0.7011,0.6963,0.6926,0.6873,0.6805,0.6746,0.6701,0.6678,0.6663,0.6695,0.6663,0.6566,0.6549,0.6533,0.6534,0.6692,0.6693,0.6771,0.6772,0.6773]},{"header":{"parameterUnit":"m.s-1","parameterCategory":1,"la1":30.2991,"la2":30.254,"lo1":-89.0895,"lo2":-89.0444,"dy":0.0017,"dx":0.0017,"nx":28,"ny":28,"refTime":"2024-06-06T03:00:00:Z","depth":0,"parameterNumber":3,"parameterNumberName":"V-component_of_WINDS"},"data":[0,0,0,0,0,0,0,0,0,0,0,0,0,0,0,0,0,0,0,0,0,0,0,0,0,0,0,0,0,0,0,0,0,0,0,0,0,0,0,0,0,0,0,0,0,0,0,0,0,0,0,0,0,0,0,0,0,0,3.8353,3.8352,0,3.8299,3.8298,3.8298,3.8272,3.8272,3.8272,3.8272,3.8209,3.8207,3.8206,0,0,0,0,0,0,0,0,0,0,0,0,0,3.8427,3.8426,3.8353,3.8352,3.8352,3.8299,3.8298,3.8297,3.8272,3.8272,3.8272,3.8272,3.821,3.8208,3.8206,0,0,0,0,0,0,0,0,0,0,0,0,0,3.8386,3.8425,3.8353,3.8333,3.8331,3.8299,3.8298,3.8297,3.8272,3.8272,3.8272,3.8272,3.821,3.8208,3.8205,3.8188,0,0,3.8197,3.8196,0,0,0,0,0,0,0,0,3.8388,3.8383,3.8336,3.8334,3.8332,3.8292,3.8301,3.826,3.8272,3.8294,3.8272,3.8272,3.8236,3.8232,3.8221,3.8185,3.8182,3.8197,3.8196,3.8194,3.8194,0,0,0,0,0,0,0,3.8391,3.8385,3.8331,3.8336,3.8333,3.8324,3.8318,3.8293,3.8265,3.8292,3.829,3.8284,3.8235,3.8224,3.8219,3.8181,3.8197,3.8195,3.8193,3.8192,3.8126,3.8126,0,0,0,0,0,0,3.8398,3.8388,3.8333,3.833,3.8361,3.8323,3.8316,3.8305,3.8265,3.826,3.8284,3.8283,3.8228,3.8222,3.8217,3.8193,3.8194,3.8192,3.8191,3.8126,3.8126,3.8126,0,0,0,0,0,0,3.84,3.8394,3.8335,3.8358,3.835,3.8321,3.8309,3.8304,3.8292,3.826,3.8254,3.8279,3.8228,3.8221,3.8195,3.8191,3.8191,3.8189,3.8126,3.8126,3.8126,3.8146,0,0,0,0,0,0,3.8402,3.8394,3.8389,3.8358,3.8349,3.8317,3.8308,3.8303,3.8289,3.8287,3.8253,3.8247,3.8227,3.8199,3.8193,3.8187,3.8186,3.8127,3.8126,3.8126,3.8146,3.8146,3.8147,0,0,0,0,0,3.8405,3.8396,3.8389,3.8383,3.8343,3.8317,3.8311,3.8291,3.8289,3.8282,3.8261,3.8248,3.8192,3.8197,3.8189,3.8183,3.8127,3.8126,3.8126,3.8145,3.8146,3.8147,0,0,0,0,0,0,3.8425,3.8391,3.8384,3.8365,3.8344,3.8313,3.8304,3.8293,3.8271,3.827,3.8243,3.8235,3.8212,3.8195,3.8201,3.8163,3.8158,3.8156,3.8175,3.8176,3.8177,3.8181,3.8184,0,0,0,0,0,3.8427,3.8412,3.8382,3.8368,3.8359,3.8333,3.8321,3.8308,3.8284,3.8274,3.8251,3.8227,3.8204,3.8189,3.8166,3.8143,3.8134,3.8134,3.8135,3.8136,3.8134,3.8119,3.8119,3.8124,3.8124,3.8124,0,0,3.8431,3.8411,3.8403,3.8372,3.8354,3.8336,3.8326,3.8308,3.8293,3.8271,3.8246,3.8228,3.8199,3.8175,3.8163,3.8159,3.8131,3.8135,3.8136,3.8134,3.8119,3.8118,3.8118,3.8124,3.8124,3.8124,0,0,3.843,3.8414,3.8401,3.8384,3.8358,3.8341,3.8338,3.8308,3.8296,3.8271,3.8254,3.8235,3.8196,3.8175,3.816,3.815,3.8137,3.8143,3.8147,3.8133,3.8132,3.8132,3.8127,3.8126,3.8142,3.8142,3.8142,0,3.8438,3.8413,3.8394,3.8377,3.8363,3.8345,3.8329,3.8312,3.8279,3.8269,3.8266,3.8217,3.8195,3.8166,3.8164,3.8152,3.8145,3.8147,3.8134,3.8134,3.8133,3.8128,3.8126,3.8143,3.8142,3.8142,3.8142,0,3.8424,3.8406,3.8398,3.837,3.8354,3.8338,3.8314,3.8301,3.8288,3.8271,3.8245,3.8219,3.819,3.8181,3.8168,3.8149,3.8148,3.814,3.8135,3.8133,3.8129,3.8127,3.8144,3.8144,3.8143,3.8143,0,0,3.8434,3.8395,3.8392,3.8379,3.8349,3.8334,3.8315,3.8289,3.8278,3.8255,3.8238,3.8205,3.8198,3.818,3.8164,3.8151,3.8144,3.8145,3.8143,3.8145,3.812,3.8126,3.8124,3.8135,3.8135,3.8134,3.8122,0,3.8428,3.8398,3.838,3.8356,3.8339,3.832,3.8303,3.8282,3.8265,3.8245,3.8225,3.8202,3.8195,3.8184,3.8171,3.8148,3.8138,3.8148,3.8116,3.8115,3.8124,3.8122,3.8128,3.8118,3.812,3.812,3.8119,0,3.8418,3.8398,3.8373,3.8345,3.8337,3.8323,3.8297,3.828,3.8253,3.8241,3.8222,3.8206,3.8183,3.8179,3.8146,3.8153,3.8139,3.8125,3.8124,3.812,3.8117,3.8117,3.8114,3.8113,3.8116,3.8117,3.8117,0,3.8427,3.8394,3.8375,3.8364,3.833,3.832,3.8305,3.8279,3.8265,3.8241,3.8231,3.8204,3.8188,3.8167,3.8142,3.8142,3.8111,3.8106,3.8098,3.8099,3.8092,3.8093,3.8087,3.8084,3.8084,3.8084,3.8084,0,3.8423,3.8408,3.8379,3.8367,3.8349,3.8327,3.8308,3.8291,3.8268,3.8251,3.8232,3.8215,3.8184,3.8163,3.8143,3.8118,3.8111,3.8099,3.8094,3.81,3.8102,3.809,3.809,3.8083,3.8083,3.8084,3.8084,0,3.843,3.841,3.8388,3.8358,3.835,3.8338,3.8311,3.8297,3.8279,3.8257,3.825,3.822,3.8194,3.8168,3.8131,3.8118,3.8092,3.8086,3.8102,3.8099,3.8093,3.8094,3.8079,3.8075,3.8076,3.8076,3.8076,0,3.8429,3.8417,3.8387,3.8375,3.8361,3.8342,3.8327,3.8304,3.8289,3.8258,3.8247,3.822,3.8197,3.8155,3.8128,3.81,3.8092,3.8089,3.8087,3.8094,3.8091,3.8092,3.809,3.8089,3.8089,3.809,3.809,0,3.8428,3.8419,3.84,3.8377,3.8361,3.8341,3.832,3.8311,3.8283,3.8267,3.8241,3.8223,3.8187,3.8159,3.8128,3.8109,3.8094,3.809,3.8087,3.8094,3.8103,3.8097,3.8104,3.8091,3.8091,3.8091,3.809,3.809,3.843,3.8419,3.8396,3.8375,3.8358,3.8339,3.8324,3.8305,3.8284,3.8255,3.8241,3.8215,3.8186,3.8143,3.8124,3.8101,3.8097,3.8093,3.8091,3.809,3.8092,3.8108,3.8095,3.8095,3.8095,3.8095,3.8095,0,3.8428,3.8413,3.8394,3.8367,3.8349,3.834,3.8316,3.8301,3.8279,3.8256,3.8234,3.8203,3.8176,3.8147,3.8118,3.8104,3.8097,3.8097,3.8098,3.8093,3.8097,3.8103,3.8104,3.8104,3.8104,3.8104,3.8104,3.8104,3.8425,3.8405,3.8393,3.8363,3.8346,3.8323,3.831,3.8291,3.8272,3.824,3.8218,3.8201,3.8174,3.8142,3.8116,3.8108,3.8097,3.81,3.8089,3.8094,3.8093,3.8092,3.8098,3.8098,3.8098,3.8087,3.8087,3.8087]}]]